Tracking 29892 objects as of 21-Nov-2024
HD Live streaming from Space Station
objects crossing your sky now

FENGYUN 1C DEB

Track FENGYUN 1C DEB now!
10-day predictions


NORAD ID: 37404
Int'l Code: 1999-025EFW
Perigee: 768.3 km
Apogee: 832.4 km
Inclination: 98.5 °
Period: 100.7 minutes
Semi major axis: 7171 km
RCS: 0.001 m2 (small)
Launch date: May 10, 1999
Source: People's Republic of China (PRC)
Launch site: Taiyaun Space Center, China (TSC)

Note: This is SATELLITE DEBRIS
Your satellite tracking list
Your tracking list is empty




NASA's NSSDC Master Catalog

Two Line Element Set (TLE):
1 37404U 99025EFW 24324.49992532  .00002729  00000-0  10722-2 0  9995
2 37404  98.4540 332.0964 0044659 229.3673 284.8655 14.29552725771899
Source of the keplerian elements: AFSPC